GW4879 Weather Reports


time (UTC)temp
C
wind
direction
speed
KPH
gust
KPH
rain 1hr
cm
rain 24hr
cm
rain mn
cm
humidity
%
barometer
mb
20260510120529 14 0 0.0 3.2 0.00 0.00 0.00 61 1018.0
20260510120043 14 0 0.0 3.2 0.00 0.00 0.00 62 1017.7
20260510115528 14 0 0.0 8.0 0.00 0.00 0.00 62 1017.5
20260510115029 14 0 0.0 11.3 0.00 0.00 0.00 63 1017.2
20260510114547 14 0 0.0 11.3 0.00 0.00 0.00 63 1017.2
20260510114029 15 74 0.0 11.3 0.00 0.00 0.00 64 1017.0
20260510113530 15 0 0.0 9.7 0.00 0.00 0.00 65 1016.7
20260510113045 15 0 0.0 8.0 0.00 0.00 0.00 65 1016.6
20260510112532 15 0 0.0 8.0 0.00 0.00 0.00 66 1016.4
20260510112028 15 0 0.0 4.8 0.00 0.00 0.00 65 1016.1
20260510111547 15 0 0.0 8.0 0.00 0.00 0.00 65 1016.0
20260510111029 15 0 0.0 8.0 0.00 0.00 0.00 65 1016.0
20260510110531 15 0 0.0 8.0 0.00 0.00 0.00 65 1015.9
20260510110045 15 0 0.0 8.0 0.00 0.00 0.00 65 1015.9
20260510105527 15 52 0.0 4.8 0.00 0.00 0.00 65 1015.9
20260510105028 15 0 0.0 8.0 0.00 0.00 0.00 65 1016.0
20260510104548 15 0 0.0 9.7 0.00 0.00 0.00 65 1015.9
20260510104030 15 54 0.0 9.7 0.00 0.00 0.00 65 1015.7
20260510103529 15 0 0.0 4.8 0.00 0.00 0.00 65 1015.8
20260510103042 15 0 0.0 3.2 0.00 0.00 0.00 65 1015.7
20260510102530 15 0 0.0 3.2 0.00 0.00 0.00 65 1015.7
20260510102033 15 0 0.0 3.2 0.00 0.00 0.00 64 1015.7
20260510101542 15 0 0.0 6.4 0.00 0.00 0.00 64 1015.5
20260510101032 15 0 0.0 8.0 0.00 0.00 0.00 64 1015.4
20260510100534 15 0 0.0 8.0 0.00 0.00 0.00 64 1015.2
20260510100105 15 0 0.0 3.2 0.00 0.00 0.00 64 1015.1
20260510095530 15 0 0.0 6.4 0.00 0.00 0.00 64 1015.0
20260510095032 15 0 0.0 6.4 0.00 0.00 0.00 63 1014.8
20260510094555 15 39 0.0 6.4 0.00 0.00 0.00 63 1014.9
20260510094029 16 0 0.0 4.8 0.00 0.00 0.00 63 1014.9
20260510093531 16 0 0.0 4.8 0.00 0.00 0.00 63 1014.5
20260510093041 16 0 0.0 4.8 0.00 0.00 0.00 63 1014.5
20260510092608 16 0 0.0 4.8 0.00 0.00 0.00 63 1014.7
20260510092029 16 0 0.0 9.7 0.00 0.00 0.00 63 1014.6
20260510091547 16 0 0.0 9.7 0.00 0.00 0.00 63 1014.6
20260510091029 16 0 0.0 9.7 0.00 0.00 0.00 63 1014.5
20260510090530 16 49 0.0 4.8 0.00 0.00 0.00 63 1014.5
20260510090051 16 0 0.0 0.0 0.00 0.00 0.00 63 1014.5
20260510085529 16 0 0.0 1.6 0.00 0.00 0.00 64 1014.5
20260510085032 16 0 0.0 1.6 0.00 0.00 0.00 64 1014.6
20260510084603 16 0 0.0 1.6 0.00 0.00 0.00 64 1014.5
20260510084033 16 0 0.0 8.0 0.00 0.00 0.00 64 1014.3
20260510083530 16 0 0.0 8.0 0.00 0.00 0.00 65 1014.4
20260510083042 16 0 0.0 3.2 0.00 0.00 0.00 65 1014.4
20260510082529 16 0 0.0 1.6 0.00 0.00 0.00 66 1014.4
20260510082029 16 0 0.0 0.0 0.00 0.00 0.00 66 1014.4
20260510081551 16 0 0.0 0.0 0.00 0.00 0.00 66 1014.3
20260510081029 16 0 0.0 0.0 0.00 0.00 0.00 65 1014.2
20260510080528 16 0 0.0 0.0 0.00 0.00 0.00 65 1014.2
20260510080040 17 0 0.0 0.0 0.00 0.00 0.00 65 1014.1
20260510075530 17 0 0.0 0.0 0.00 0.00 0.00 65 1014.0
20260510075030 17 0 0.0 0.0 0.00 0.00 0.00 64 1013.9
20260510074557 17 0 0.0 0.0 0.00 0.00 0.00 64 1014.0
20260510074029 17 0 0.0 0.0 0.00 0.00 0.00 63 1014.0
20260510073530 17 0 0.0 0.0 0.00 0.00 0.00 63 1014.0
20260510073044 17 0 0.0 0.0 0.00 0.00 0.00 62 1013.9
20260510072530 17 0 0.0 0.0 0.00 0.00 0.00 62 1013.9
20260510072031 17 0 0.0 0.0 0.00 0.00 0.00 62 1013.8
20260510071546 17 0 0.0 0.0 0.00 0.00 0.00 62 1013.7
20260510071029 18 0 0.0 0.0 0.00 0.00 0.00 61 1013.5
20260510070530 18 0 0.0 0.0 0.00 0.00 0.00 61 1013.4
20260510070050 18 0 0.0 0.0 0.00 0.00 0.00 61 1013.4
20260510065530 18 0 0.0 0.0 0.00 0.00 0.00 60 1013.4
20260510065030 18 0 0.0 0.0 0.00 0.00 0.00 59 1013.5
20260510064540 19 0 0.0 0.0 0.00 0.00 0.00 59 1013.3
20260510064030 19 0 0.0 0.0 0.00 0.00 0.00 58 1013.4
20260510063530 18 0 0.0 0.0 0.00 0.00 0.00 59 1013.3
20260510063048 18 0 0.0 0.0 0.00 0.00 0.00 59 1013.2
20260510062530 18 0 0.0 0.0 0.00 0.00 0.00 60 1013.2
20260510062034 18 0 0.0 0.0 0.00 0.00 0.00 60 1013.2
20260510061547 18 0 0.0 0.0 0.00 0.00 0.00 61 1013.0
20260510061033 18 0 0.0 0.0 0.00 0.00 0.00 61 1012.8
20260510060529 18 0 0.0 0.0 0.00 0.00 0.00 61 1012.8
20260510060044 18 0 0.0 0.0 0.00 0.00 0.00 61 1012.7
20260510055534 18 0 0.0 0.0 0.00 0.00 0.00 60 1012.5
20260510055029 19 0 0.0 0.0 0.00 0.00 0.00 59 1012.4
20260510054543 19 0 0.0 0.0 0.00 0.00 0.00 59 1012.5
20260510054029 19 0 0.0 0.0 0.00 0.00 0.00 58 1012.3
20260510053530 19 0 0.0 0.0 0.00 0.00 0.00 58 1012.3
20260510053041 19 0 0.0 0.0 0.00 0.00 0.00 58 1012.3
20260510052529 20 0 0.0 0.0 0.00 0.00 0.00 57 1012.3
20260510052030 20 0 0.0 0.0 0.00 0.00 0.00 57 1012.2
20260510051547 20 0 0.0 0.0 0.00 0.00 0.00 56 1012.1
20260510051030 20 0 0.0 0.0 0.00 0.00 0.00 56 1012.0
20260510050529 20 0 0.0 0.0 0.00 0.00 0.00 55 1012.0
20260510050048 20 0 0.0 0.0 0.00 0.00 0.00 53 1011.9
20260510045531 20 0 0.0 0.0 0.00 0.00 0.00 53 1011.9
20260510045030 20 0 0.0 0.0 0.00 0.00 0.00 52 1011.9
20260510044546 20 0 0.0 0.0 0.00 0.00 0.00 52 1011.9
20260510044029 20 0 0.0 0.0 0.00 0.00 0.00 52 1011.9
20260510043533 20 0 0.0 0.0 0.00 0.00 0.00 52 1012.1
20260510043048 21 0 0.0 0.0 0.00 0.00 0.00 51 1012.0
20260510042533 21 0 0.0 0.0 0.00 0.00 0.00 51 1012.1
20260510042029 21 0 0.0 0.0 0.00 0.00 0.00 50 1012.1
20260510041539 21 0 0.0 0.0 0.00 0.00 0.00 50 1012.1
20260510041031 21 0 0.0 0.0 0.00 0.00 0.00 50 1012.3
20260510040529 21 0 0.0 0.0 0.00 0.00 0.00 50 1012.1
20260510040045 21 0 0.0 0.0 0.00 0.00 0.00 50 1012.0
20260510035530 21 0 0.0 0.0 0.00 0.00 0.00 49 1012.1
20260510035030 21 0 0.0 0.0 0.00 0.00 0.00 48 1012.1
20260510034548 21 0 0.0 0.0 0.00 0.00 0.00 47 1011.9
20260510034029 22 0 0.0 0.0 0.00 0.00 0.00 46 1011.7
20260510033529 22 0 0.0 0.0 0.00 0.00 0.00 46 1011.5
20260510033100 22 0 0.0 0.0 0.00 0.00 0.00 46 1011.3
20260510032529 22 0 0.0 0.0 0.00 0.00 0.00 46 1011.2
20260510032029 22 0 0.0 0.0 0.00 0.00 0.00 47 1011.3
20260510031547 22 0 0.0 0.0 0.00 0.00 0.00 46 1011.0
20260510031031 22 0 0.0 0.0 0.00 0.00 0.00 46 1010.8
20260510030534 22 0 0.0 0.0 0.00 0.00 0.00 46 1011.1
20260510030045 22 0 0.0 0.0 0.00 0.00 0.00 46 1011.1
20260510025533 22 0 0.0 0.0 0.00 0.00 0.00 47 1011.0
20260510025029 22 0 0.0 0.0 0.00 0.00 0.00 48 1011.0
20260510024540 22 0 0.0 0.0 0.00 0.00 0.00 48 1011.0
20260510024029 22 0 0.0 0.0 0.00 0.00 0.00 50 1011.0
20260510023531 22 0 0.0 0.0 0.00 0.00 0.00 51 1011.0
20260510023042 22 0 0.0 0.0 0.00 0.00 0.00 54 1010.9
20260510022529 22 0 0.0 0.0 0.00 0.00 0.00 52 1011.1
20260510022030 22 0 0.0 0.0 0.00 0.00 0.00 49 1011.4
20260510021544 22 0 0.0 0.0 0.00 0.00 0.00 51 1011.4
20260510021029 23 0 0.0 0.0 0.00 0.00 0.00 46 1011.5
20260510020530 23 0 0.0 0.0 0.00 0.00 0.00 45 1011.5
20260510020047 24 0 0.0 0.0 0.00 0.00 0.00 43 1011.5
20260510015530 24 0 0.0 0.0 0.00 0.00 0.00 40 1011.3
20260510015029 24 0 0.0 0.0 0.00 0.00 0.00 38 1011.2
20260510014546 24 0 0.0 0.0 0.00 0.00 0.00 42 1011.0
20260510014029 24 0 0.0 0.0 0.00 0.00 0.00 40 1011.2
20260510013530 24 0 0.0 0.0 0.00 0.00 0.00 38 1010.8
20260510013044 24 0 0.0 0.0 0.00 0.00 0.00 36 1010.4
20260510012528 25 0 0.0 0.0 0.00 0.00 0.00 36 1010.2
20260510012033 25 0 0.0 0.0 0.00 0.00 0.00 36 1009.9
20260510011545 25 0 0.0 0.0 0.00 0.00 0.00 36 1009.6
20260510011030 25 0 0.0 0.0 0.00 0.00 0.00 35 1009.3
20260510010532 25 0 0.0 0.0 0.00 0.00 0.00 35 1009.2
20260510010045 25 0 0.0 0.0 0.00 0.00 0.00 34 1008.8
20260510005529 25 0 0.0 0.0 0.00 0.00 0.00 34 1008.6
20260510005029 26 0 0.0 0.0 0.00 0.00 0.00 33 1008.3
20260510004543 26 0 0.0 1.6 0.00 0.00 0.00 33 1008.2
20260510004029 26 0 0.0 1.6 0.00 0.00 0.00 33 1008.1
20260510003527 26 0 0.0 1.6 0.00 0.00 0.00 32 1007.9
20260510003043 27 0 0.0 0.0 0.00 0.00 0.00 31 1007.9
20260510002529 27 0 0.0 0.0 0.00 0.00 0.00 30 1007.8
20260510002028 27 0 0.0 0.0 0.00 0.00 0.00 30 1007.8
20260510001537 27 0 0.0 0.0 0.00 0.00 0.00 29 1007.7
20260510001032 27 0 0.0 1.6 0.00 0.00 0.00 28 1007.7
20260510000528 28 0 0.0 3.2 0.00 0.00 0.00 27 1007.6
20260510000100 28 0 0.0 3.2 0.00 0.00 0.00 27 1007.6
20260509235533 28 0 0.0 0.0 0.00 0.00 0.00 27 1007.6
20260509235027 28 0 0.0 1.6 0.00 0.00 0.00 26 1007.8
20260509234554 28 0 0.0 1.6 0.00 0.00 0.00 26 1007.8
20260509234032 28 0 0.0 1.6 0.00 0.00 0.00 26 1007.8
20260509233533 28 0 0.0 0.0 0.00 0.00 0.00 25 1007.8
20260509233047 29 0 0.0 1.6 0.00 0.00 0.00 26 1007.9
20260509232533 29 0 0.0 1.6 0.00 0.00 0.00 26 1007.9
20260509232029 29 0 0.0 1.6 0.00 0.00 0.00 25 1007.8
20260509231545 30 0 0.0 1.6 0.00 0.00 0.00 23 1008.0
20260509231029 30 0 0.0 0.0 0.00 0.00 0.00 24 1007.9
20260509230533 30 0 0.0 1.6 0.00 0.00 0.00 23 1007.9
20260509230045 30 0 0.0 1.6 0.00 0.00 0.00 24 1007.8
20260509225532 30 0 0.0 0.0 0.00 0.00 0.00 22 1007.8
20260509225030 31 0 0.0 0.0 0.00 0.00 0.00 22 1007.9
20260509224541 31 0 0.0 0.0 0.00 0.00 0.00 22 1007.8
20260509224029 31 0 0.0 0.0 0.00 0.00 0.00 22 1007.7
20260509223531 31 0 0.0 1.6 0.00 0.00 0.00 21 1007.8
20260509223044 31 0 0.0 1.6 0.00 0.00 0.00 21 1007.7
20260509222530 31 0 0.0 0.0 0.00 0.00 0.00 21 1007.7
20260509222035 31 0 0.0 0.0 0.00 0.00 0.00 21 1007.6
20260509221544 31 0 0.0 0.0 0.00 0.00 0.00 20 1007.7
20260509221030 31 0 0.0 0.0 0.00 0.00 0.00 21 1007.7
20260509220530 31 0 0.0 0.0 0.00 0.00 0.00 22 1007.6
20260509220041 31 0 0.0 0.0 0.00 0.00 0.00 20 1007.5
20260509215531 31 0 0.0 0.0 0.00 0.00 0.00 24 1007.5
20260509215032 31 0 0.0 0.0 0.00 0.00 0.00 22 1007.6
20260509214544 31 0 0.0 0.0 0.00 0.00 0.00 22 1007.6
20260509214030 31 0 0.0 0.0 0.00 0.00 0.00 22 1007.5
20260509213531 31 0 0.0 0.0 0.00 0.00 0.00 21 1007.6
20260509213042 30 0 0.0 0.0 0.00 0.00 0.00 22 1007.7
20260509212531 30 0 0.0 0.0 0.00 0.00 0.00 22 1007.8
20260509212031 30 0 0.0 0.0 0.00 0.00 0.00 23 1007.9
20260509211544 30 0 0.0 0.0 0.00 0.00 0.00 22 1007.9
20260509211030 30 0 0.0 0.0 0.00 0.00 0.00 23 1008.0
20260509210531 30 0 0.0 0.0 0.00 0.00 0.00 24 1008.0
20260509210057 30 0 0.0 0.0 0.00 0.00 0.00 22 1008.1
20260509205530 30 0 0.0 0.0 0.00 0.00 0.00 24 1008.2
20260509205030 30 0 0.0 0.0 0.00 0.00 0.00 23 1008.1
20260509204551 30 0 0.0 3.2 0.00 0.00 0.00 22 1008.2
20260509204031 30 0 0.0 3.2 0.00 0.00 0.00 23 1008.3
20260509203533 31 0 0.0 0.0 0.00 0.00 0.00 23 1008.3
20260509203044 31 0 0.0 0.0 0.00 0.00 0.00 22 1008.4
20260509202533 31 0 0.0 0.0 0.00 0.00 0.00 22 1008.5
20260509202031 31 0 0.0 0.0 0.00 0.00 0.00 22 1008.5
20260509201547 31 0 0.0 0.0 0.00 0.00 0.00 21 1008.7
20260509201032 31 0 0.0 0.0 0.00 0.00 0.00 22 1008.6
20260509200532 31 0 0.0 0.0 0.00 0.00 0.00 23 1008.7
20260509200057 31 0 0.0 0.0 0.00 0.00 0.00 22 1008.9
20260509195531 31 0 0.0 0.0 0.00 0.00 0.00 22 1009.0
20260509195029 31 0 0.0 0.0 0.00 0.00 0.00 23 1009.1
20260509194545 31 0 0.0 0.0 0.00 0.00 0.00 22 1009.1
20260509194031 30 0 0.0 0.0 0.00 0.00 0.00 23 1009.2
20260509193530 30 0 0.0 0.0 0.00 0.00 0.00 22 1009.3
20260509193045 30 0 0.0 0.0 0.00 0.00 0.00 22 1009.3
20260509192532 30 202 0.0 0.0 0.00 0.00 0.00 23 1009.3
20260509192032 30 0 0.0 0.0 0.00 0.00 0.00 23 1009.3
20260509191543 30 0 0.0 0.0 0.00 0.00 0.00 25 1009.3
20260509191031 30 0 0.0 3.2 0.00 0.00 0.00 23 1009.4
20260509190532 30 0 0.0 3.2 0.00 0.00 0.00 24 1009.5
20260509190043 30 0 0.0 3.2 0.00 0.00 0.00 23 1009.5
20260509185532 30 0 0.0 1.6 0.00 0.00 0.00 22 1009.4
20260509185032 30 0 0.0 1.6 0.00 0.00 0.00 23 1009.6
20260509184555 30 0 0.0 0.0 0.00 0.00 0.00 25 1009.6
20260509184032 30 0 0.0 0.0 0.00 0.00 0.00 25 1009.7
20260509183532 30 0 0.0 0.0 0.00 0.00 0.00 23 1009.8
20260509183043 30 0 0.0 0.0 0.00 0.00 0.00 25 1009.8
20260509182530 30 0 0.0 0.0 0.00 0.00 0.00 26 1009.8
20260509182029 30 0 0.0 0.0 0.00 0.00 0.00 26 1009.9
20260509181557 29 0 0.0 0.0 0.00 0.00 0.00 26 1009.9
20260509181030 30 0 0.0 0.0 0.00 0.00 0.00 24 1010.0
20260509180530 30 0 0.0 0.0 0.00 0.00 0.00 25 1010.0
20260509180045 30 0 0.0 0.0 0.00 0.00 0.00 25 1010.1
20260509175529 29 0 0.0 0.0 0.00 0.00 0.00 28 1010.1
20260509175029 29 0 0.0 0.0 0.00 0.00 0.00 27 1010.2
20260509174543 30 0 0.0 1.6 0.00 0.00 0.00 25 1010.5
20260509174032 29 0 0.0 3.2 0.00 0.00 0.00 26 1010.4
20260509173529 29 0 0.0 3.2 0.00 0.00 0.00 26 1010.5
20260509173049 29 0 0.0 1.6 0.00 0.00 0.00 25 1010.5
20260509172534 29 0 0.0 0.0 0.00 0.00 0.00 26 1010.5
20260509172030 28 0 0.0 0.0 0.00 0.00 0.00 26 1010.6
20260509171543 28 0 0.0 0.0 0.00 0.00 0.00 26 1010.8
20260509171029 28 0 0.0 1.6 0.00 0.00 0.00 26 1010.9
20260509170530 28 0 0.0 1.6 0.00 0.00 0.00 27 1011.0
20260509170045 28 0 0.0 0.0 0.00 0.00 0.00 28 1011.0
20260509165532 28 0 0.0 1.6 0.00 0.00 0.00 28 1010.9
20260509165029 28 0 0.0 1.6 0.00 0.00 0.00 28 1011.0
20260509164541 27 0 0.0 0.0 0.00 0.00 0.00 32 1010.9
20260509164031 27 0 0.0 0.0 0.00 0.00 0.00 31 1010.9
20260509163534 27 0 0.0 0.0 0.00 0.00 0.00 33 1010.9
20260509163042 27 0 0.0 0.0 0.00 0.00 0.00 33 1011.0
20260509162529 27 0 0.0 1.6 0.00 0.00 0.00 34 1011.1
20260509162032 27 0 0.0 1.6 0.00 0.00 0.00 35 1011.1
20260509161546 26 0 0.0 0.0 0.00 0.00 0.00 37 1011.1
20260509161033 26 0 0.0 0.0 0.00 0.00 0.00 37 1011.0
20260509160528 26 0 0.0 0.0 0.00 0.00 0.00 37 1010.9
20260509160046 26 245 0.0 0.0 0.00 0.00 0.00 37 1011.0
20260509155530 26 0 0.0 0.0 0.00 0.00 0.00 37 1010.9
20260509155029 26 0 0.0 1.6 0.00 0.00 0.00 37 1010.9
20260509154543 26 0 0.0 1.6 0.00 0.00 0.00 38 1011.0
20260509154034 26 0 0.0 0.0 0.00 0.00 0.00 39 1010.9
20260509153533 25 0 0.0 0.0 0.00 0.00 0.00 39 1011.0
20260509153047 25 0 0.0 0.0 0.00 0.00 0.00 40 1011.0
20260509152529 25 0 0.0 0.0 0.00 0.00 0.00 41 1011.0
20260509152036 25 0 0.0 0.0 0.00 0.00 0.00 41 1011.0
20260509151544 24 0 0.0 0.0 0.00 0.00 0.00 43 1011.0
20260509151032 24 0 0.0 0.0 0.00 0.00 0.00 42 1010.9
20260509150531 24 0 0.0 0.0 0.00 0.00 0.00 44 1010.9
20260509150043 23 0 0.0 0.0 0.00 0.00 0.00 46 1010.9
20260509145532 23 0 0.0 0.0 0.00 0.00 0.00 45 1010.9
20260509145034 23 0 0.0 0.0 0.00 0.00 0.00 46 1010.9
20260509144559 23 0 0.0 0.0 0.00 0.00 0.00 47 1010.8
20260509144033 22 0 0.0 1.6 0.00 0.00 0.00 50 1010.9
20260509143531 22 0 0.0 1.6 0.00 0.00 0.00 50 1010.9
20260509143105 22 0 0.0 1.6 0.00 0.00 0.00 51 1010.9
20260509142530 22 0 0.0 0.0 0.00 0.00 0.00 53 1010.8
20260509142032 21 0 0.0 0.0 0.00 0.00 0.00 55 1010.7
20260509141542 21 0 0.0 0.0 0.00 0.00 0.00 56 1010.7
20260509141027 21 0 0.0 0.0 0.00 0.00 0.00 56 1010.8
20260509140528 21 0 0.0 0.0 0.00 0.00 0.00 57 1010.9
20260509140043 20 0 0.0 0.0 0.00 0.00 0.00 58 1010.8
20260509135529 20 0 0.0 0.0 0.00 0.00 0.00 59 1010.8
20260509135030 20 0 0.0 0.0 0.00 0.00 0.00 59 1010.7
20260509134558 20 0 0.0 0.0 0.00 0.00 0.00 62 1010.8
20260509134027 19 0 0.0 0.0 0.00 0.00 0.00 62 1010.8
20260509133527 19 0 0.0 0.0 0.00 0.00 0.00 62 1010.8
20260509133046 19 0 0.0 0.0 0.00 0.00 0.00 63 1010.8
20260509132530 18 0 0.0 0.0 0.00 0.00 0.00 65 1010.9
20260509132030 18 0 0.0 0.0 0.00 0.00 0.00 66 1011.0
20260509131544 17 0 0.0 0.0 0.00 0.00 0.00 67 1011.0
20260509131026 17 0 0.0 0.0 0.00 0.00 0.00 68 1010.9
20260509130532 17 0 0.0 0.0 0.00 0.00 0.00 68 1010.9
20260509130053 17 0 0.0 0.0 0.00 0.00 0.00 69 1010.7
20260509125527 16 0 0.0 0.0 0.00 0.00 0.00 70 1010.6
20260509125031 16 0 0.0 0.0 0.00 0.00 0.00 71 1010.7
20260509124544 16 0 0.0 1.6 0.00 0.00 0.00 71 1010.7
20260509124029 15 0 0.0 1.6 0.00 0.00 0.00 72 1010.6
20260509123529 15 0 0.0 0.0 0.00 0.00 0.00 73 1010.6
20260509123055 15 0 0.0 0.0 0.00 0.00 0.00 74 1010.5
20260509122527 14 0 0.0 0.0 0.00 0.00 0.00 78 1010.4
20260509122029 13 0 0.0 0.0 0.00 0.00 0.00 80 1010.3
20260509121548 12 0 0.0 0.0 0.00 0.00 0.00 81 1010.3
20260509121030 12 0 0.0 0.0 0.00 0.00 0.00 82 1010.3